Location: Cuiry
(49.3858°N, 3.7708°E)
Time: 23:24:06
(UTC+00:00)

Resurs 1-3 - Visible Passes

Search period start: 18 April 2026 00:00
Search period end: 28 April 2026 00:00
Orbit: 613 x 614 km, 97.7° (Epoch: 18 April)

Date Brightness Start Highest point End Pass type
(mag) Time Alt. Az. Time Alt. Az. Time Alt. Az.
19 Apr 6.5 19:14:23 10° SW 19:17:08 16° W 19:19:53 10° NW visible
20 Apr 6.8 19:31:02 10° WSW 19:32:35 12° W 19:34:08 10° WNW visible
26 Apr 6.7 19:26:09 10° WSW 19:28:06 13° W 19:30:04 10° WNW visible
